Location: Stavanger
(58.9670°N, 5.7500°E)
Time: 06:12:25
(UTC+02:00)

ISS - Visible Passes

Search period start: 27 May 2017 00:00
Search period end: 06 June 2017 00:00
Orbit: 402 x 408 km, 51.6° (Epoch: 27 May)

Date Brightness Start Highest point End Pass type
(mag) Time Alt. Az. Time Alt. Az. Time Alt. Az.
27 May -2.6 00:58:20 10° SW 01:01:01 23° S 01:03:41 10° SE visible
27 May -2.2 02:34:42 10° WSW 02:36:47 16° SSW 02:38:51 10° SSE visible
28 May -2.6 00:06:30 10° SW 00:09:10 23° S 00:11:50 10° ESE visible
28 May -2.3 01:42:35 10° WSW 01:44:59 19° SSW 01:47:23 10° SSE visible
29 May -2.5 00:50:33 10° WSW 00:53:09 21° S 00:55:43 10° SE visible
29 May -1.7 02:27:43 10° SW 02:28:37 11° SSW 02:28:37 11° SSW visible
29 May -2.5 23:58:36 10° WSW 00:01:16 23° S 00:03:56 10° SE visible
30 May -2.0 01:35:07 10° WSW 01:37:01 15° SSW 01:37:44 14° S visible
31 May -2.2 00:42:53 10° WSW 00:45:11 18° SSW 00:47:04 12° SSE visible
31 May -2.3 23:50:47 10° WSW 23:53:19 20° SSW 23:55:51 10° SE visible
01 Jun -1.5 01:28:51 10° SSW 01:28:56 10° SSW 01:29:00 10° SSW visible
02 Jun -1.7 00:35:27 10° SW 00:37:07 13° SSW 00:38:33 11° S visible
